Location: Newark
(48.2308°N, 120.8549°W)
Time: 21:42:25
(UTC+00:00)

SR - All Passes

Search period start: 25 May 2020 00:00
Search period end: 04 June 2020 00:00
Orbit: 581 x 874 km, 66.7° (Epoch: 24 May)

Date Brightness Start Highest point End Pass type
(mag) Time Alt. Az. Time Alt. Az. Time Alt. Az.
25 May - 00:11:09 10° S 00:16:09 39° ESE 00:20:48 10° NE daylight
25 May - 01:53:16 10° WSW 01:58:14 39° NW 02:02:49 10° NNE daylight
25 May - 03:39:30 10° NW 03:41:33 12° NNW 03:43:34 10° N daylight
25 May - 07:07:30 10° N 07:10:08 15° NNE 07:12:41 10° ENE visible
25 May - 08:48:41 10° NNW 08:53:07 65° NE 08:57:20 10° SE visible
25 May - 10:31:54 10° WNW 10:34:34 16° WSW 10:37:10 10° SW visible
25 May - 23:22:42 10° SSE 23:26:42 21° ESE 23:30:29 10° ENE daylight
26 May - 01:03:03 10° SW 01:08:23 68° NW 01:13:17 10° NNE daylight
26 May - 02:47:54 10° WNW 02:51:16 17° NNW 02:54:28 10° N daylight
26 May - 06:18:42 10° N 06:19:47 11° NNE 06:20:52 10° NE visible
26 May - 07:59:08 10° NNW 08:03:15 35° NE 08:07:11 10° ESE visible
26 May - 09:41:19 10° NW 09:45:13 32° WSW 09:49:00 10° S visible
26 May - 22:36:05 10° ESE 22:37:23 11° ESE 22:38:41 10° E daylight
27 May - 00:13:21 10° SSW 00:18:41 69° ESE 00:23:36 10° NE daylight
27 May - 01:56:49 10° W 02:01:07 26° NW 02:05:11 10° NNE daylight
27 May - 07:09:44 10° NNW 07:13:13 21° NE 07:16:33 10° E visible
27 May - 08:51:19 10° NW 08:55:43 68° WSW 08:59:54 10° SSE visible
27 May - 23:24:13 10° S 23:29:07 37° ESE 23:33:40 10° NE daylight
28 May - 01:06:11 10° WSW 01:11:09 41° NW 01:15:45 10° NNE daylight
28 May - 02:52:18 10° NW 02:54:27 13° NNW 02:56:31 10° N daylight
28 May - 06:20:31 10° N 06:23:01 14° NNE 06:25:25 10° ENE visible
28 May - 08:01:38 10° NNW 08:06:02 61° NE 08:10:13 10° SE visible
28 May - 09:44:42 10° WNW 09:47:32 17° WSW 09:50:18 10° SSW visible
28 May - 22:35:51 10° SSE 22:39:41 20° ESE 22:43:18 10° ENE daylight
29 May - 00:16:01 10° SW 00:21:20 71° NW 00:26:13 10° NNE daylight
29 May - 02:00:44 10° WNW 02:04:10 18° NNW 02:07:25 10° N daylight
29 May - 05:31:56 10° N 05:32:39 10° NNE 05:33:22 10° NNE visible
29 May - 07:12:06 10° NNW 07:16:09 33° NE 07:20:02 10° ESE visible
29 May - 08:54:13 10° NW 08:58:10 34° WSW 09:02:00 10° S visible
29 May - 23:26:21 10° SSW 23:31:38 65° ESE 23:36:30 10° NE daylight
30 May - 01:09:41 10° W 01:14:02 27° NW 01:18:07 10° NNE daylight
30 May - 06:22:44 10° NNW 06:26:06 20° NE 06:29:21 10° E visible
30 May - 08:04:16 10° NW 08:08:39 72° WSW 08:12:51 10° SSE visible
30 May - 22:37:16 10° S 22:42:04 35° ESE 22:46:33 10° NE daylight
31 May - 00:19:06 10° WSW 00:24:04 43° NW 00:28:41 10° NNE daylight
31 May - 02:05:06 10° NW 02:07:19 13° NNW 02:09:29 10° N daylight
31 May - 05:33:33 10° N 05:35:53 14° NNE 05:38:09 10° ENE visible
31 May - 07:14:34 10° NNW 07:18:56 57° NE 07:23:07 10° SE visible
31 May - 08:57:32 10° WNW 09:00:30 18° WSW 09:03:24 10° SSW visible
31 May - 21:49:02 10° SSE 21:52:39 19° ESE 21:56:06 10° ENE daylight
31 May - 23:28:58 10° SW 23:34:16 75° NW 23:39:08 10° NNE daylight
01 Jun - 01:13:34 10° WNW 01:17:03 18° NNW 01:20:22 10° N daylight
01 Jun - 06:25:04 10° NNW 06:29:03 31° NE 06:32:52 10° ESE visible
01 Jun - 08:07:06 10° NW 08:11:07 37° WSW 08:15:01 10° S visible
01 Jun - 22:39:22 10° SSW 22:44:35 61° ESE 22:49:25 10° NE daylight
02 Jun - 00:22:33 10° W 00:26:57 28° NW 00:31:03 10° NNE daylight
02 Jun - 05:35:43 10° NNW 05:38:59 20° NE 05:42:09 10° E visible
02 Jun - 07:17:12 10° NW 07:21:35 77° WSW 07:25:47 10° SSE visible
02 Jun - 21:50:21 10° S 21:55:02 33° ESE 21:59:25 10° NE daylight
02 Jun - 23:32:00 10° WSW 23:37:00 45° NW 23:41:37 10° NNE daylight
03 Jun - 01:17:54 10° NW 01:20:12 13° NNW 01:22:26 10° N daylight
03 Jun - 04:46:34 10° N 04:48:45 13° NNE 04:50:53 10° NE visible
03 Jun - 06:27:32 10° NNW 06:31:51 53° NE 06:36:00 10° SE visible
03 Jun - 08:10:21 10° WNW 08:13:27 19° WSW 08:16:30 10° SSW visible
03 Jun - 21:02:13 10° SSE 21:05:37 18° ESE 21:08:53 10° ENE daylight
03 Jun - 22:41:56 10° SW 22:47:12 79° NW 22:52:03 10° NNE daylight
